Location: Mount Cross
(36.6390°N, 79.4878°W)
Time: 20:12:53
(UTC+00:00)

Courier 1B Rocket - Pass Details

Date: 25 March 2023
Orbit: 920 x 1202 km, 28.2° (Epoch: 05 June)

Event Time Altitude Azimuth Distance (km) Brightness Sun altitude
Enters shadow 03:55:59 - 258° (WSW) 3,727 8.2 -46.5°
Rises 03:56:04 0° 258° (WSW) 3,701 - -46.5°
Reaches altitude 10° 03:58:57 10° 251° (WSW) 2,712 - -46.9°
Maximum altitude 04:04:55 39° 185° (S) 1,378 - -47.5°
Drops below altitude 10° 04:10:39 10° 118° (ESE) 2,609 - -48.0°
Sets 04:13:23 0° 111° (ESE) 3,545 - -48.3°
